"2016-05-24 00:00:00",1660251,1.898,154.1,4.938,0.209,15.44,105.4248,13.16,14.11,41.79,0,110.6,13.16,13.96,116.1
"2016-05-24 00:00:30",1660252,2.464,149.4,4.537,0.384,15.21,105.4491,13.22,14.15,45.53,0,110.6,13.16,14.02,111.4
"2016-05-24 00:01:00",1660253,3.022,150.4,6.423,0.188,15.32,105.4553,13.24,14.18,48.36,0,110.6,13.16,14.04,112.4
"2016-05-24 00:01:30",1660254,2.816,145.7,2.813,0.203,15.42,105.4814,13.3,14.24,49.4,0,110.6,13.16,14.10,107.7
"2016-05-24 00:02:00",1660255,2.568,150.6,2.454,0.25,15.38,105.4854,13.31,14.27,49.68,0,110.6,13.16,14.11,112.6
"2016-05-24 00:02:30",1660256,2.284,151.8,5.435,0.364,15.51,105.5079,13.37,14.31,49.94,0,110.6,13.16,14.17,113.8
"2016-05-24 00:03:00",1660257,2.403,151.2,5.872,0.148,15.53,105.5101,13.38,14.33,46.29,0,110.6,13.16,14.18,113.2
"2016-05-24 00:03:30",1660258,2.273,147.6,2.89,0.082,15.4,105.5205,13.4,14.38,45.44,0,110.6,13.16,14.20,109.6
"2016-05-24 00:04:00",1660259,2.133,154.3,4.249,0.134,15.74,105.5419,13.46,14.39,44.44,0,110.6,13.16,14.26,116.3
"2016-05-24 00:04:30",1660260,2.381,139.2,4.433,0.208,15.55,105.5427,13.46,14.43,44.01,0,110.6,13.16,14.26,101.2
"2016-05-24 00:05:00",1660261,2.431,136.7,4.985,0.266,15.46,105.5582,13.5,14.47,48.08,0,110.6,13.16,14.30,98.7
"2016-05-24 00:05:30",1660262,2.441,133.4,8.49,0.295,15.42,105.5723,13.54,14.48,48.99,0,110.7,13.16,14.34,95.4
"2016-05-24 00:06:00",1660263,1.888,145.5,3.179,0.208,15.52,105.5762,13.55,14.51,49.73,0,110.6,13.16,14.35,107.5
"2016-05-24 00:06:30",1660264,2.067,137.8,2.31,0.161,15.27,105.5762,13.55,14.54,49.78,0,110.6,13.16,14.35,99.8
"2016-05-24 00:07:00",1660265,1.714,135.1,4.699,0.193,15.5,105.5861,13.57,14.57,49.98,0,110.7,13.16,14.37,97.1
"2016-05-24 00:07:30",1660266,1.544,131.6,3.874,0.245,15.39,105.6035,13.62,14.58,50.42,0,110.7,13.16,14.42,93.6
"2016-05-24 00:08:00",1660267,2.111,143,6.264,0.141,15.45,105.6097,13.63,14.59,51.12,0,110.7,13.16,14.43,105.0
"2016-05-24 00:08:30",1660268,2.07,143.5,6.702,0.401,15.47,105.61,13.63,14.63,51.71,0,110.6,13.16,14.43,105.5
"2016-05-24 00:09:00",1660269,2.14,149.1,3.337,0.236,15.47,105.61,13.63,14.62,51.93,0,110.7,13.16,14.43,111.1
"2016-05-24 00:09:30",1660270,1.936,151.9,6.704,0.185,15.75,105.61,13.63,14.66,51.33,0,110.7,13.15,14.43,113.9
"2016-05-24 00:10:00",1660271,1.613,155.6,6.01,0.28,15.97,105.61,13.63,14.63,45.9,0,110.7,13.14,14.43,117.6
"2016-05-24 00:10:30",1660272,1.028,164.1,12.23,0.439,16.19,105.61,13.63,14.64,43.42,0,110.7,13.14,14.43,126.1
"2016-05-24 00:11:00",1660273,0.067,190.3,15.06,0.242,16.23,105.61,13.63,14.64,41.31,0,110.7,13.14,14.43,152.3
"2016-05-24 00:11:30",1660274,-0.281,196.8,80.3,0.029,16.21,105.61,13.63,14.64,40.38,0,110.6,13.14,14.43,158.8
"2016-05-24 00:12:00",1660275,-0.092,355.9,13.12,0.074,16.6,105.61,13.63,14.64,40.13,0,110.6,13.14,14.43,317.9
"2016-05-24 00:12:30",1660276,-0.163,9.37,22.08,0.118,16.71,105.61,13.63,14.66,39.16,0,110.6,13.14,14.43,331.4
"2016-05-24 00:13:00",1660277,-0.086,20.38,22.84,0.085,16.68,105.6103,13.63,14.66,38.6,0,110.7,13.14,14.43,342.4
"2016-05-24 00:13:30",1660278,0.159,130.7,14.53,0.19,16.28,105.61,13.63,14.65,38.72,0,110.7,13.14,14.43,92.7
"2016-05-24 00:14:00",1660279,0.528,106.2,8.5,0.16,16.15,105.61,13.63,14.66,39.37,0,110.7,13.14,14.43,68.2
"2016-05-24 00:14:30",1660280,1.194,115.6,4.344,0.084,15.62,105.61,13.63,14.65,43.86,0,110.7,13.14,14.43,77.6
"2016-05-24 00:15:00",1660281,1.394,109.6,4.636,0.15,15.82,105.6108,13.64,14.66,45.46,0,110.7,13.14,14.44,71.6
"2016-05-24 00:15:30",1660282,1.706,102.4,9.76,0.269,15.83,105.6142,13.64,14.65,45.66,0,110.7,13.14,14.44,64.4
"2016-05-24 00:16:00",1660283,2.408,88.5,8.78,0.392,15.98,105.6311,13.69,14.67,46.16,0,110.7,13.14,14.49,50.5
"2016-05-24 00:16:30",1660284,1.986,100,7.577,0.405,15.97,105.639,13.71,14.68,45.47,0,110.7,13.14,14.51,62.0
"2016-05-24 00:17:00",1660285,2.323,98.1,7.178,0.359,15.99,105.643,13.72,14.69,45.16,0,110.7,13.15,14.52,60.1
"2016-05-24 00:17:30",1660286,2.296,101.2,2.909,0.206,15.72,105.6438,13.72,14.7,47.65,0,110.7,13.15,14.52,63.2
"2016-05-24 00:18:00",1660287,2.283,108.9,10.14,0.964,16.77,105.6354,13.7,14.83,49.11,0,110.7,13.1,14.50,70.9
"2016-05-24 00:18:30",1660288,2.898,105.4,14.94,1.437,19.83,105.617,13.65,14.95,49.75,0,110.7,13.1,14.45,67.4
"2016-05-24 00:19:00",1660289,2.357,75.33,12.53,1.588,18.64,105.6111,13.64,14.9,48.63,0,110.7,13.1,14.44,37.3
"2016-05-24 00:19:30",1660290,1.977,54.97,15.11,1.487,18.7,105.61,13.63,14.84,43.04,0,110.7,13.1,14.43,17.0
"2016-05-24 00:20:00",1660291,1.051,32.48,3.37,0.085,15.46,105.61,13.63,14.65,39.27,0,110.7,13.14,14.43,354.5
"2016-05-24 00:20:30",1660292,0.868,34.69,5.068,0.114,15.18,105.61,13.63,14.64,38.09,0,110.7,13.14,14.43,356.7
"2016-05-24 00:21:00",1660293,1.023,30.56,5.956,0.14,15.17,105.61,13.63,14.63,37.24,0,110.7,13.14,14.43,352.6
"2016-05-24 00:21:30",1660294,1.065,21.25,5.445,0.242,15.33,105.61,13.63,14.63,37.08,0,110.7,13.14,14.43,343.2
"2016-05-24 00:22:00",1660295,0.854,19.18,5.801,0.206,15.53,105.61,13.63,14.63,36.95,0,110.7,13.14,14.43,341.2
"2016-05-24 00:22:30",1660296,1.019,31.73,14.2,0.369,15.41,105.61,13.63,14.63,37.61,0,110.7,13.14,14.43,353.7
"2016-05-24 00:23:00",1660297,1.948,47.89,2.735,0.245,15.08,105.6092,13.63,14.63,42.21,0,110.7,13.15,14.43,9.9
"2016-05-24 00:23:30",1660298,2.508,44.99,4.889,0.3,15.43,105.6049,13.62,14.63,45.01,0,110.7,13.15,14.42,7.0
"2016-05-24 00:24:00",1660299,2.257,39.81,2.293,0.287,15.83,105.5872,13.58,14.62,43.87,0,110.7,13.15,14.38,1.8
"2016-05-24 00:24:30",1660300,1.852,32.03,4.546,0.288,16.01,105.5762,13.55,14.63,42.04,0,110.7,13.15,14.35,354.0
"2016-05-24 00:25:00",1660301,1.909,29.05,3.534,0.304,16.24,105.5762,13.55,14.59,41.07,0,110.7,13.15,14.35,351.0
"2016-05-24 00:25:30",1660302,2.224,31.82,3.956,0.162,16.37,105.5762,13.55,14.6,39.25,0,110.7,13.15,14.35,353.8
"2016-05-24 00:26:00",1660303,3.143,42.01,6.664,1.134,16.59,105.568,13.53,14.59,41.08,0,110.7,13.1,14.33,4.0
"2016-05-24 00:26:30",1660304,4.012,44.29,6.735,1.328,18.65,105.5489,13.48,14.79,42.96,0,110.7,13.1,14.28,6.3
"2016-05-24 00:27:00",1660305,4.467,41.72,7.667,1.443,18.82,105.5424,13.46,14.8,43.46,0,110.7,13.09,14.26,3.7
"2016-05-24 00:27:30",1660306,4.986,50.31,7.877,1.464,18.27,105.5317,13.43,14.8,46.26,0,110.7,13.09,14.23,12.3
"2016-05-24 00:28:00",1660307,4.361,45.15,5.269,0.841,15.8,105.5086,13.37,14.51,46.9,0,110.6,13.09,14.17,7.2
"2016-05-24 00:28:30",1660308,3.715,38.32,3.49,0.22,15.01,105.5035,13.36,14.48,46.71,0,110.6,13.14,14.16,0.3
"2016-05-24 00:29:00",1660309,2.973,32.31,1.9,0.288,15.17,105.4782,13.3,14.47,47.4,0,110.6,13.14,14.10,354.3
"2016-05-24 00:29:30",1660310,3.264,33.83,2.644,0.55,15.26,105.474,13.29,14.43,47.64,0,110.6,13.14,14.08,355.8
"2016-05-24 00:30:00",1660311,4.138,35.39,2.028,0.402,15.44,105.4493,13.22,14.41,48.3,0,110.6,13.14,14.02,357.4
"2016-05-24 00:30:30",1660312,3.688,35.22,2.138,0.34,15.6,105.4449,13.21,14.38,48.38,0,110.6,13.14,14.01,357.2
"2016-05-24 00:31:00",1660313,3.798,27.11,2.457,0.369,15.85,105.4382,13.19,14.34,48.83,0,110.6,13.14,13.99,349.1
"2016-05-24 00:31:30",1660314,3.417,32.54,2.634,0.347,15.86,105.4186,13.14,14.31,48.63,0,110.6,13.14,13.94,354.5
"2016-05-24 00:32:00",1660315,3.587,29.58,4.26,0.402,15.86,105.4161,13.14,14.29,49.26,0,110.6,13.15,13.94,351.6
"2016-05-24 00:32:30",1660316,3.69,25.78,2.238,0.277,15.89,105.4169,13.14,14.27,50,0,110.6,13.15,13.94,347.8
"2016-05-24 00:33:00",1660317,3.718,26.61,4.013,0.386,15.92,105.412,13.13,14.24,49.92,0,110.6,13.15,13.92,348.6
"2016-05-24 00:33:30",1660318,3.512,25.41,1.897,0.272,15.95,105.4082,13.12,14.23,50.52,0,110.6,13.15,13.92,347.4
"2016-05-24 00:34:00",1660319,3.251,23.77,2.069,0.337,15.98,105.4038,13.11,14.21,49.99,0,110.6,13.15,13.90,345.8
"2016-05-24 00:34:30",1660320,3.25,23.59,1.408,0.225,15.93,105.4018,13.1,14.21,49.87,0,110.6,13.16,13.90,345.6
"2016-05-24 00:35:00",1660321,3.139,22.43,1.706,0.193,15.99,105.4084,13.12,14.17,49.85,0,110.6,13.16,13.92,344.4
"2016-05-24 00:35:30",1660322,3.529,22.17,2.723,0.408,16.14,105.4217,13.15,14.19,49.51,0,110.6,13.16,13.95,344.2
"2016-05-24 00:36:00",1660323,2.87,18.57,3.389,0.572,16.13,105.4267,13.16,14.2,49.57,0,110.6,13.16,13.96,340.6
"2016-05-24 00:36:30",1660324,2.943,24.18,5.506,0.454,16.02,105.4346,13.18,14.19,50.11,0,110.6,13.16,13.98,346.2
"2016-05-24 00:37:00",1660325,2.702,30.15,1.938,0.211,15.9,105.4372,13.19,14.22,50.51,0,110.6,13.16,13.99,352.1
"2016-05-24 00:37:30",1660326,3.045,33.93,3.353,0.301,15.86,105.4378,13.19,14.21,50.82,0,110.6,13.16,13.99,355.9
"2016-05-24 00:38:00",1660327,2.924,35.41,2.375,0.367,15.9,105.4593,13.25,14.23,50.78,0,110.6,13.16,14.05,357.4
"2016-05-24 00:38:30",1660328,3.113,36.7,7.024,1.283,17.14,105.4706,13.28,14.27,50.71,0,110.7,13.11,14.08,358.7
"2016-05-24 00:39:00",1660329,3.992,41.42,7.804,1.514,18.87,105.4737,13.29,14.48,50.83,0,110.6,13.11,14.08,3.4
"2016-05-24 00:39:30",1660330,4.262,40.95,8.72,1.599,18.22,105.4755,13.29,14.4,50.73,0,110.6,13.11,14.09,3.0
"2016-05-24 00:40:00",1660331,3.125,37.88,3.242,0.464,15.35,105.4896,13.33,14.3,50.51,0,110.6,13.15,14.12,359.9
"2016-05-24 00:40:30",1660332,2.571,38.21,6.533,0.417,14.87,105.5074,13.37,14.32,50.74,0,110.6,13.15,14.17,0.2
"2016-05-24 00:41:00",1660333,2.681,49.33,2.476,0.124,14.72,105.5105,13.38,14.33,50.82,0,110.6,13.15,14.18,11.3
"2016-05-24 00:41:30",1660334,2.841,51.73,5.588,0.205,14.79,105.5105,13.38,14.35,51.11,0,110.6,13.15,14.18,13.7
"2016-05-24 00:42:00",1660335,2.634,58.34,3.736,0.177,14.95,105.513,13.39,14.35,51.15,0,110.6,13.15,14.18,20.3
"2016-05-24 00:42:30",1660336,2.445,70.5,3.88,0.125,15.17,105.5296,13.43,14.37,51.08,0,110.6,13.15,14.23,32.5
"2016-05-24 00:43:00",1660337,3.017,66.39,2.554,0.124,15.24,105.5426,13.46,14.39,51.41,0,110.6,13.15,14.26,28.4
"2016-05-24 00:43:30",1660338,2.701,53.62,5.021,0.266,15.35,105.5443,13.47,14.4,51.75,0,110.6,13.15,14.26,15.6
"2016-05-24 00:44:00",1660339,2.515,50.97,5.576,0.224,15.39,105.544,13.46,14.42,51.59,0,110.6,13.15,14.26,13.0
"2016-05-24 00:44:30",1660340,2.878,44.23,1.773,0.178,15.54,105.5443,13.47,14.43,51.6,0,110.6,13.15,14.26,6.2
"2016-05-24 00:45:00",1660341,3.383,48.11,5.309,1.222,16.88,105.5454,13.47,14.48,51.92,0,110.6,13.1,14.27,10.1
"2016-05-24 00:45:30",1660342,3.259,73.25,14.09,1.288,18.43,105.5561,13.5,14.69,52.14,0,110.6,13.1,14.30,35.2
"2016-05-24 00:46:00",1660343,2.262,77.06,5.152,0.281,15.59,105.5516,13.48,14.46,51.79,0,110.6,13.15,14.28,39.1
"2016-05-24 00:46:30",1660344,1.788,87.1,4.402,0.147,15.36,105.5443,13.47,14.47,51.55,0,110.6,13.15,14.26,49.1
"2016-05-24 00:47:00",1660345,1.647,70.02,10.81,0.294,15.22,105.544,13.46,14.47,51.64,0,110.6,13.15,14.26,32.0
"2016-05-24 00:47:30",1660346,2.457,59.11,9.49,0.336,15.32,105.5443,13.47,14.46,51.82,0,110.6,13.15,14.26,21.1
"2016-05-24 00:48:00",1660347,3.087,52.74,3.521,0.258,15.46,105.5434,13.46,14.46,52.55,0,110.6,13.14,14.26,14.7
"2016-05-24 00:48:30",1660348,3.4,64.31,3.307,0.29,15.49,105.5434,13.46,14.45,52.44,0,110.6,13.15,14.26,26.3
"2016-05-24 00:49:00",1660349,2.908,62.47,6.712,0.201,15.62,105.544,13.46,14.44,52.48,0,110.6,13.15,14.26,24.5
"2016-05-24 00:49:30",1660350,2.268,68.7,4.068,0.089,15.59,105.5428,13.46,14.45,52.22,0,110.6,13.15,14.26,30.7
"2016-05-24 00:50:00",1660351,2.281,63.72,3.179,0.144,15.7,105.5507,13.48,14.47,52.06,0,110.6,13.15,14.28,25.7
"2016-05-24 00:50:30",1660352,2.966,71.39,2.531,0.301,15.79,105.557,13.5,14.47,52.38,0,110.6,13.15,14.30,33.4
"2016-05-24 00:51:00",1660353,4.666,82.2,5.916,1.449,18.7,105.5621,13.51,14.63,52.61,0,110.6,13.1,14.31,44.2
"2016-05-24 00:51:30",1660354,3.702,90.7,9.75,1.392,17.42,105.5642,13.52,14.58,52.48,0,110.6,13.1,14.32,52.7
"2016-05-24 00:52:00",1660355,2.722,88.1,3.115,0.17,15.73,105.5603,13.51,14.48,52.56,0,110.6,13.15,14.31,50.1
"2016-05-24 00:52:30",1660356,2.826,86.9,3.971,0.174,15.65,105.5552,13.49,14.48,52.31,0,110.6,13.15,14.29,48.9
"2016-05-24 00:53:00",1660357,2.796,96.7,2.914,0.259,15.47,105.5507,13.48,14.49,52.27,0,110.6,13.15,14.28,58.7
"2016-05-24 00:53:30",1660358,2.305,95.4,6.46,0.139,15.49,105.5451,13.47,14.49,52.33,0,110.6,13.15,14.27,57.4
"2016-05-24 00:54:00",1660359,2.235,90.8,6.012,0.204,15.52,105.544,13.46,14.49,52.55,0,110.6,13.15,14.26,52.8
"2016-05-24 00:54:30",1660360,2.397,86.1,3.324,0.326,15.58,105.5428,13.46,14.48,52.69,0,110.6,13.15,14.26,48.1
"2016-05-24 00:55:00",1660361,2.804,94.1,4.829,0.166,15.56,105.5422,13.46,14.48,52.59,0,110.6,13.15,14.26,56.1
"2016-05-24 00:55:30",1660362,2.232,97.5,3.752,0.151,15.67,105.5416,13.46,14.48,52.64,0,110.6,13.15,14.26,59.5
"2016-05-24 00:56:00",1660363,1.938,99.1,5.405,0.18,15.72,105.5419,13.46,14.48,52.54,0,110.6,13.15,14.26,61.1
"2016-05-24 00:56:30",1660364,2.082,103.3,6.923,0.246,15.68,105.5404,13.46,14.48,52.37,0,110.6,13.15,14.25,65.3
"2016-05-24 00:57:00",1660365,2.855,111.2,7.262,1.325,17.1,105.5392,13.45,14.57,52.34,0,110.6,13.1,14.25,73.2
"2016-05-24 00:57:30",1660366,3.16,101.5,6.346,1.491,17.46,105.5395,13.45,14.63,52.26,0,110.6,13.1,14.25,63.5
"2016-05-24 00:58:00",1660367,1.844,111.8,3.405,0.083,15.44,105.5398,13.45,14.46,51.99,0,110.6,13.15,14.25,73.8
"2016-05-24 00:58:30",1660368,1.727,114,3.816,0.151,15.25,105.5416,13.46,14.47,51.9,0,110.6,13.15,14.26,76.0
"2016-05-24 00:59:00",1660369,1.468,114.4,5.668,0.073,15.25,105.5398,13.45,14.47,51.85,0,110.6,13.15,14.25,76.4
"2016-05-24 00:59:30",1660370,1.448,115.5,3.967,0.062,15.36,105.5398,13.45,14.47,51.8,0,110.6,13.15,14.25,77.5
"2016-05-24 01:00:00",1660371,1.289,112,2.441,0.084,15.37,105.5389,13.45,14.48,51.78,0,110.6,13.15,14.25,74.0
"2016-05-24 01:00:30",1660372,1.412,113.1,4.217,0.111,15.45,105.5377,13.45,14.46,51.73,0,110.6,13.15,14.25,75.1
"2016-05-24 01:01:00",1660373,1.494,115.2,2.901,0.075,15.59,105.5315,13.43,14.46,51.67,0,110.6,13.15,14.23,77.2
"2016-05-24 01:01:30",1660374,1.572,107.7,2.195,0.06,15.36,105.5273,13.42,14.48,51.6,0,110.6,13.15,14.22,69.7
"2016-05-24 01:02:00",1660375,1.557,102.8,2.876,0.085,15.51,105.5217,13.41,14.46,51.53,0,110.6,13.15,14.21,64.8
"2016-05-24 01:02:30",1660376,1.587,93.9,2.751,0.08,15.61,105.519,13.4,14.48,51.53,0,110.6,13.14,14.20,55.9
"2016-05-24 01:03:00",1660377,1.797,95.6,5.803,0.134,15.59,105.5206,13.41,14.49,51.61,0,110.6,13.14,14.20,57.6
"2016-05-24 01:03:30",1660378,2.087,87.5,4.775,0.158,15.67,105.5339,13.44,14.48,52.44,0,110.6,13.14,14.24,49.5
"2016-05-24 01:04:00",1660379,2.452,76.32,4.471,0.353,15.61,105.5406,13.46,14.49,52.76,0,110.6,13.14,14.26,38.3
"2016-05-24 01:04:30",1660380,2.391,83.3,9.57,0.249,15.68,105.5411,13.46,14.5,52.88,0,110.6,13.14,14.26,45.3
"2016-05-24 01:05:00",1660381,2.807,87.9,6.055,0.323,15.7,105.5426,13.46,14.52,52.82,0,110.6,13.14,14.26,49.9
"2016-05-24 01:05:30",1660382,3.462,90.7,3.453,0.255,15.65,105.5428,13.46,14.51,52.69,0,110.6,13.14,14.26,52.7
"2016-05-24 01:06:00",1660383,3.826,85.4,8.64,1.332,17.21,105.5417,13.46,14.61,52.74,0,110.6,13.1,14.26,47.4
"2016-05-24 01:06:30",1660384,3.889,84.2,8.57,1.384,17.71,105.5373,13.45,14.73,52.57,0,110.6,13.1,14.25,46.2
"2016-05-24 01:07:00",1660385,4.411,78.69,7.398,1.442,18.17,105.5344,13.44,14.65,52.43,0,110.6,13.1,14.24,40.7
"2016-05-24 01:07:30",1660386,3.708,70.93,8.21,1.061,16.52,105.528,13.42,14.61,52.11,0,110.6,13.1,14.22,32.9
"2016-05-24 01:08:00",1660387,2.891,67.58,3.881,0.119,14.97,105.5201,13.4,14.5,51.66,0,110.6,13.15,14.20,29.6
"2016-05-24 01:08:30",1660388,2.708,66.67,2.756,0.122,15.06,105.5175,13.4,14.5,51.4,0,110.6,13.15,14.20,28.7
"2016-05-24 01:09:00",1660389,2.796,63.23,1.96,0.063,15.2,105.5175,13.4,14.5,50.88,0,110.6,13.15,14.20,25.2
"2016-05-24 01:09:30",1660390,3.517,65.17,6.943,1.244,17.19,105.5184,13.4,14.63,50.68,0,110.6,13.1,14.20,27.2
"2016-05-24 01:10:00",1660391,3.538,68.38,8.26,1.371,17.01,105.5196,13.4,14.61,50.6,0,110.6,13.1,14.20,30.4
"2016-05-24 01:10:30",1660392,2.529,63.87,2.878,0.067,15.17,105.522,13.41,14.46,50.53,0,110.6,13.15,14.21,25.9
"2016-05-24 01:11:00",1660393,2.635,61.13,3.6,0.13,15.03,105.5202,13.4,14.47,50.55,0,110.6,13.15,14.20,23.1
"2016-05-24 01:11:30",1660394,2.84,60,1.717,0.112,15.12,105.5153,13.39,14.46,50.7,0,110.6,13.15,14.19,22.0
"2016-05-24 01:12:00",1660395,2.666,62.77,3.25,0.129,15.22,105.5058,13.37,14.45,50.77,0,110.6,13.15,14.17,24.8
"2016-05-24 01:12:30",1660396,2.69,55.9,2.341,0.075,15.31,105.498,13.35,14.44,50.73,0,110.6,13.15,14.15,17.9
"2016-05-24 01:13:00",1660397,2.644,54.88,1.766,0.053,15.43,105.4935,13.34,14.43,50.44,0,110.6,13.15,14.13,16.9
"2016-05-24 01:13:30",1660398,2.855,55.79,1.261,0.062,15.74,105.4992,13.35,14.4,50.42,0,110.6,13.15,14.15,17.8
"2016-05-24 01:14:00",1660399,3.702,61.59,9.03,1.3,17.17,105.4998,13.35,14.5,50.51,0,110.6,13.1,14.15,23.6
"2016-05-24 01:14:30",1660400,3.952,67.21,6.961,1.473,18.17,105.5007,13.35,14.58,50.75,0,110.6,13.1,14.15,29.2
"2016-05-24 01:15:00",1660401,3.721,60.49,6.948,1.468,17.23,105.4875,13.32,14.51,50.63,0,110.6,13.1,14.12,22.5
"2016-05-24 01:15:30",1660402,3.332,50.02,7.09,1.109,16.35,105.4717,13.28,14.45,50.38,0,110.6,13.1,14.08,12.0
"2016-05-24 01:16:00",1660403,2.672,44.19,1.119,0.067,15.11,105.4692,13.27,14.35,50.11,0,110.6,13.15,14.07,6.2
"2016-05-24 01:16:30",1660404,2.481,41.62,2.891,0.187,15.1,105.4719,13.28,14.35,49.96,0,110.6,13.15,14.08,3.6
"2016-05-24 01:17:00",1660405,2.498,42.73,1.923,0.229,15.25,105.4719,13.28,14.33,49.65,0,110.6,13.15,14.08,4.7
"2016-05-24 01:17:30",1660406,2.142,40.44,1.882,0.195,15.36,105.4743,13.29,14.31,49.29,0,110.6,13.15,14.09,2.4
"2016-05-24 01:18:00",1660407,2.245,41.6,1.177,0.06,15.43,105.4725,13.28,14.3,49.18,0,110.6,13.15,14.08,3.6
"2016-05-24 01:18:30",1660408,2.266,43.38,1.772,0.132,15.5,105.4683,13.27,14.29,49.22,0,110.6,13.14,14.07,5.4
"2016-05-24 01:19:00",1660409,2.272,43.81,1.275,0.137,15.5,105.4693,13.27,14.29,49.34,0,110.6,13.14,14.07,5.8
"2016-05-24 01:19:30",1660410,1.891,41.3,2.551,0.169,15.65,105.4701,13.28,14.28,49.46,0,110.6,13.14,14.07,3.3
"2016-05-24 01:20:00",1660411,1.732,46.73,1.361,0.076,15.74,105.4704,13.28,14.29,49.49,0,110.6,13.14,14.07,8.7
"2016-05-24 01:20:30",1660412,1.691,48.03,1.736,0.071,15.82,105.4746,13.29,14.28,49.75,0,110.6,13.14,14.09,10.0
"2016-05-24 01:21:00",1660413,1.641,56.41,4.693,0.089,15.74,105.4752,13.29,14.29,49.91,0,110.6,13.14,14.09,18.4
"2016-05-24 01:21:30",1660414,1.341,69.24,4.867,0.11,15.87,105.4737,13.29,14.28,50.11,0,110.6,13.14,14.08,31.2
"2016-05-24 01:22:00",1660415,1.569,48.99,5.812,0.226,15.59,105.4749,13.29,14.29,50.3,0,110.6,13.14,14.09,11.0
"2016-05-24 01:22:30",1660416,1.728,43.26,2.411,0.193,15.77,105.4746,13.29,14.28,50.07,0,110.6,13.14,14.09,5.3
"2016-05-24 01:23:00",1660417,2.846,55.25,8.57,1.373,17.44,105.4731,13.28,14.44,50.17,0,110.6,13.1,14.08,17.2
"2016-05-24 01:23:30",1660418,3.483,57.06,7.774,1.441,18.55,105.4731,13.28,14.58,50.23,0,110.6,13.1,14.08,19.1
"2016-05-24 01:24:00",1660419,3.508,54.05,7.787,1.474,18,105.4743,13.29,14.44,49.99,0,110.6,13.1,14.09,16.0
"2016-05-24 01:24:30",1660420,2.626,61.68,8.49,1.212,16.49,105.4746,13.29,14.48,50.27,0,110.6,13.1,14.09,23.7
"2016-05-24 01:25:00",1660421,1.915,58.11,3.138,0.526,14.79,105.4764,13.29,14.33,50.48,0,110.6,13.1,14.09,20.1
"2016-05-24 01:25:30",1660422,1.747,61.3,1.863,0.097,14.48,105.4755,13.29,14.32,50.47,0,110.6,13.15,14.09,23.3
"2016-05-24 01:26:00",1660423,1.894,62.86,3.677,0.07,14.59,105.4755,13.29,14.32,50.52,0,110.6,13.15,14.09,24.9
"2016-05-24 01:26:30",1660424,1.866,64.46,1.672,0.055,14.76,105.4758,13.29,14.32,50.56,0,110.6,13.15,14.09,26.5
"2016-05-24 01:27:00",1660425,2.038,63.11,1.305,0.109,15.02,105.4764,13.29,14.32,50.64,0,110.6,13.15,14.09,25.1
"2016-05-24 01:27:30",1660426,2.355,57.91,3.338,0.148,15.11,105.4761,13.29,14.33,50.65,0,110.6,13.15,14.09,19.9
"2016-05-24 01:28:00",1660427,2.292,53.46,2.304,0.084,15.37,105.4767,13.29,14.33,50.7,0,110.6,13.15,14.09,15.5
"2016-05-24 01:28:30",1660428,2.411,55.03,2.333,0.105,15.33,105.4767,13.29,14.33,50.76,0,110.6,13.15,14.09,17.0
"2016-05-24 01:29:00",1660429,2.581,50.07,2.189,0.095,15.33,105.4764,13.29,14.33,50.81,0,110.6,13.15,14.09,12.1
"2016-05-24 01:29:30",1660430,2.804,46,1.542,0.098,15.56,105.4767,13.29,14.32,50.58,0,110.6,13.15,14.09,8.0
"2016-05-24 01:30:00",1660431,3.054,45.85,2.184,0.121,15.92,105.4767,13.29,14.31,50.36,0,110.6,13.15,14.09,7.8
"2016-05-24 01:30:30",1660432,4.051,53.84,8.09,1.409,18.01,105.4716,13.28,14.46,50.42,0,110.6,13.1,14.08,15.8
"2016-05-24 01:31:00",1660433,4.814,60.08,7.261,1.451,19.1,105.4592,13.25,14.51,50.51,0,110.6,13.1,14.05,22.1
"2016-05-24 01:31:30",1660434,5.028,54.44,7.347,1.491,18.21,105.444,13.21,14.48,50.39,0,110.6,13.1,14.01,16.4
"2016-05-24 01:32:00",1660435,4.206,48.77,7.313,1.222,16.39,105.4429,13.21,14.38,50.34,0,110.6,13.1,14.00,10.8
"2016-05-24 01:32:30",1660436,3.441,43.74,1.718,0.079,14.92,105.4415,13.2,14.25,50.27,0,110.6,13.15,14.00,5.7
"2016-05-24 01:33:00",1660437,3.288,40.59,1.045,0.143,15,105.431,13.18,14.23,50.39,0,110.6,13.15,13.97,2.6
"2016-05-24 01:33:30",1660438,3.313,40.32,1.34,0.144,15.19,105.411,13.12,14.21,50.38,0,110.6,13.15,13.92,2.3
"2016-05-24 01:34:00",1660439,3.29,39.46,1.309,0.254,15.31,105.4091,13.12,14.2,50.58,0,110.6,13.15,13.92,1.5
"2016-05-24 01:34:30",1660440,2.918,37.68,1.975,0.326,15.49,105.4091,13.12,14.18,50.69,0,110.6,13.15,13.92,359.7
"2016-05-24 01:35:00",1660441,2.613,35.94,2.032,0.349,15.64,105.4029,13.1,14.16,50.77,0,110.6,13.15,13.90,357.9
"2016-05-24 01:35:30",1660442,3.24,37.78,1.617,0.456,15.76,105.3902,13.07,14.16,50.86,0,110.6,13.15,13.87,359.8
"2016-05-24 01:36:00",1660443,3.273,37.12,1.654,0.382,15.91,105.3764,13.04,14.13,50.69,0,110.6,13.15,13.83,359.1
"2016-05-24 01:36:30",1660444,3.73,38.44,4.363,0.769,16.78,105.3752,13.03,14.23,50.74,0,110.6,13.1,13.83,0.4
"2016-05-24 01:37:00",1660445,4.359,43.17,7.456,1.411,18.74,105.3752,13.03,14.29,50.9,0,110.6,13.1,13.83,5.2
"2016-05-24 01:37:30",1660446,4.351,41.89,7.302,1.455,17.93,105.3752,13.03,14.25,51.02,0,110.6,13.1,13.83,3.9
"2016-05-24 01:38:00",1660447,4.628,43,8.35,1.602,18.21,105.3727,13.03,14.24,51.03,0,110.6,13.1,13.82,5.0
"2016-05-24 01:38:30",1660448,4.04,39.66,6.801,1.214,16.46,105.3637,13,14.19,51.15,0,110.6,13.1,13.80,1.7
"2016-05-24 01:39:00",1660449,3.581,36.09,2.152,0.368,14.99,105.3488,12.97,14.06,51.26,0,110.6,13.14,13.76,358.1
"2016-05-24 01:39:30",1660450,3.418,35.26,1.511,0.23,15.09,105.3423,12.95,14.04,51.46,0,110.6,13.14,13.75,357.3
"2016-05-24 01:40:00",1660451,4.263,38.35,1.671,0.497,15.3,105.3414,12.95,14.05,51.31,0,110.6,13.14,13.74,0.3
"2016-05-24 01:40:30",1660452,3.874,37.54,1.118,0.349,15.47,105.3414,12.95,14.02,51.31,0,110.6,13.15,13.74,359.5
"2016-05-24 01:41:00",1660453,4.384,39.44,1.39,0.249,15.64,105.3412,12.95,14.01,51.46,0,110.6,13.15,13.74,1.4
"2016-05-24 01:41:30",1660454,4.922,41.07,1.334,0.287,15.86,105.3327,12.92,14.01,51.41,0,110.6,13.15,13.72,3.1
"2016-05-24 01:42:00",1660455,6.142,47.21,7.145,1.389,17.96,105.322,12.9,14.12,51.5,0,110.6,13.11,13.69,9.2
"2016-05-24 01:42:30",1660456,6.87,51.98,7.672,1.416,19.2,105.3124,12.87,14.2,51.62,0,110.6,13.11,13.67,14.0
"2016-05-24 01:43:00",1660457,6.939,53.32,6.796,1.343,19.2,105.3076,12.86,14.19,51.72,0,110.6,13.11,13.66,15.3
"2016-05-24 01:43:30",1660458,6.251,49.98,7.461,1.484,17.6,105.3076,12.86,14.07,51.86,0,110.6,13.11,13.66,12.0
"2016-05-24 01:44:00",1660459,5.343,46.74,5.022,1.019,16.01,105.304,12.85,14.03,52,0,110.6,13.11,13.65,8.7
"2016-05-24 01:44:30",1660460,4.796,46.1,1.352,0.1,15.1,105.2944,12.83,13.91,51.9,0,110.6,13.15,13.62,8.1
"2016-05-24 01:45:00",1660461,4.621,47.92,0.817,0.074,15.29,105.2764,12.78,13.9,51.99,0,110.6,13.15,13.58,9.9
"2016-05-24 01:45:30",1660462,4.348,52.6,3.202,0.092,15.42,105.2738,12.77,13.88,52.33,0,110.6,13.15,13.57,14.6
"2016-05-24 01:46:00",1660463,4.004,53.07,0.843,0.17,15.48,105.2738,12.77,13.87,52.77,0,110.6,13.16,13.57,15.1
"2016-05-24 01:46:30",1660464,3.985,55.23,2.89,0.078,15.84,105.2738,12.77,13.89,52.89,0,110.6,13.16,13.57,17.2
"2016-05-24 01:47:00",1660465,5.181,65.79,7.947,1.413,18.47,105.2736,12.77,14.04,53.02,0,110.6,13.11,13.57,27.8
"2016-05-24 01:47:30",1660466,5.393,69.63,7.695,1.421,18.1,105.2665,12.75,14,53.17,0,110.6,13.11,13.55,31.6